Powrót do katalogu

STARLINK-35327

AktywnyŁącznośćVLEO
NORAD 66439·PAYLOAD·🇺🇸 United States

Wystrzelony Nov 11, 2025 z Cape Canaveral Space Force Station

Loading…

Następne Przeloty (najbliższe 24 godziny)

TLE

ŚwieżeSource: CelesTrak SupGP

Epoka: Sep 14, 2026, 21:30 UTC

1 66439C 25259T   26257.89631944  .00010422  00000+0  37755-3 0  2572
2 66439  43.0001 285.4152 0001470 265.2708  54.2355 15.27566867    15

Śledź STARLINK-35327 w czasie rzeczywistym z AllMySat

Download on the App Store